Regional Weather Roundup
Issued by NWS Goodland, KS

Home | Current Version | Previous Version | Graphics & Text | Print | Product List | Glossary Off
Versions: 1 2 3 4 5 6 7 8 9 10 11 12 13 14 15 16 17 18 19 20 21 22 23 24 25 26 27 28 29 30 31 32 33 34 35 36 37 38 39 40 41 42 43 44 45 46 47 48 49 50

000
ASUS43 KGLD 282359
RWRGLD

GOODLAND FORECAST AREA HOURLY WEATHER ROUNDUP
NATIONAL WEATHER SERVICE GOODLAND KS
600 PM MDT TUE JUL 28 2015

...OFFICIAL OBSERVATIONS...

CITY           SKY/WX    TMP DP  RH WIND       PRES   REMARKS
GOODLAND KS    SUNNY     83  43  24 NE16      30.08S
HILL CITY KS   SUNNY     85  53  33 N18       29.99S
IMPERIAL NEB   SUNNY     83  42  23 N12       30.09R
MCCOOK NEB     SUNNY     86  48  26 NE13      30.03S
AKRON CO       SUNNY     81  36  19 SE9       30.14S
BURLINGTON CO  SUNNY     80  41  24 NE14      30.12S
LIMON CO       SUNNY     79  44  28 E13       30.18R
$$

...UNOFFICIAL OBSERVATIONS...

CITY           SKY/WX    TMP DP  RH WIND       PRES   REMARKS
COLBY KS       SUNNY     84  55  37 NE13      30.07R
NORTON KS      SUNNY     81  52  36 N13       30.00S
SHARON SPRINGS   N/A     84  52  32 N14         N/A
KIT CARSON CO    N/A     85  47  26 MISG        N/A
$$



USA.gov is the U.S. government's official web portal to all federal, state and local government web resources and services.